SIA3MA WSSS-WMKK

Flight info

Callsign SIA3MA
Flight time 0h 34m
Altitude 18000
Route MASBO3A MASBO A457 GUPTA GUPTA1J
Aircraft A359/H-SDE2E3GHIJ3J4J5LM1ORWXY/LB1D1

Departure

Time 2026-05-04 13:22
Airport Singapore Changi Airport (WSSS)

Arrival

Time 2026-05-04 13:57
Airport Kuala Lumpur International Airport (WMKK)
Time Latitude Longitude Altitude Speed Heading
2026-05-04 12:57 1.35098 103.98326 33 ft 0 kts 114°
2026-05-04 13:10 1.35102 103.98315 35 ft 3 kts 122°
2026-05-04 13:10 1.35115 103.98299 32 ft 3 kts 140°
2026-05-04 13:10 1.35130 103.98287 34 ft 3 kts 146°
2026-05-04 13:10 1.35147 103.98278 33 ft 3 kts 155°
2026-05-04 13:11 1.35163 103.98272 33 ft 1 kts 166°
2026-05-04 13:11 1.35164 103.98272 33 ft 0 kts 166°
2026-05-04 13:12 1.35163 103.98272 33 ft 0 kts 166°
2026-05-04 13:12 1.35160 103.98273 33 ft 0 kts 166°
2026-05-04 13:12 1.35158 103.98272 33 ft 0 kts 174°
2026-05-04 13:12 1.35154 103.98270 35 ft 1 kts 193°
2026-05-04 13:13 1.35151 103.98267 35 ft 1 kts 220°
2026-05-04 13:13 1.35150 103.98263 32 ft 1 kts 242°
2026-05-04 13:13 1.35150 103.98262 32 ft 0 kts 245°
2026-05-04 13:14 1.35148 103.98257 33 ft 2 kts 247°
2026-05-04 13:14 1.35136 103.98228 36 ft 7 kts 246°
2026-05-04 13:14 1.35110 103.98175 36 ft 10 kts 243°
2026-05-04 13:15 1.35060 103.98114 37 ft 13 kts 216°
2026-05-04 13:15 1.34981 103.98073 37 ft 13 kts 204°
2026-05-04 13:15 1.34890 103.98034 37 ft 14 kts 202°
2026-05-04 13:15 1.34804 103.97999 37 ft 8 kts 202°
2026-05-04 13:16 1.34743 103.97973 37 ft 11 kts 202°
2026-05-04 13:16 1.34725 103.97936 37 ft 5 kts 284°
2026-05-04 13:16 1.34743 103.97895 38 ft 8 kts 293°
2026-05-04 13:16 1.34770 103.97842 38 ft 7 kts 302°
2026-05-04 13:17 1.34779 103.97828 38 ft 0 kts 306°
2026-05-04 13:20 1.34782 103.97824 38 ft 3 kts 309°
2026-05-04 13:20 1.34816 103.97801 38 ft 9 kts 330°
2026-05-04 13:20 1.34888 103.97767 39 ft 12 kts 341°
2026-05-04 13:20 1.34961 103.97774 38 ft 12 kts 21°
2026-05-04 13:21 1.34979 103.97782 38 ft 0 kts 23°
2026-05-04 13:21 1.35005 103.97793 38 ft 11 kts 23°
2026-05-04 13:21 1.35276 103.97907 39 ft 79 kts 22°
2026-05-04 13:22 1.35981 103.98205 33 ft 141 kts 22°
2026-05-04 13:22 1.37028 103.98649 246 ft 174 kts 22°
2026-05-04 13:22 1.38132 103.99113 968 ft 171 kts 21°
2026-05-04 13:22 1.39248 103.99562 1656 ft 172 kts 21°
2026-05-04 13:23 1.40363 104.00006 2223 ft 174 kts 21°
2026-05-04 13:23 1.41494 104.00470 2753 ft 176 kts 22°
2026-05-04 13:23 1.42667 104.00956 3122 ft 190 kts 21°
2026-05-04 13:23 1.43963 104.01489 3449 ft 212 kts 21°
2026-05-04 13:24 1.45380 104.02068 3738 ft 234 kts 21°
2026-05-04 13:24 1.46937 104.02740 4120 ft 253 kts 22°
2026-05-04 13:24 1.48616 104.03419 4602 ft 265 kts 17°
2026-05-04 13:25 1.52244 104.02988 5824 ft 272 kts 335°
2026-05-04 13:25 1.53905 104.02104 6438 ft 275 kts 327°
2026-05-04 13:25 1.55332 104.00811 7015 ft 280 kts 308°
2026-05-04 13:25 1.56302 103.99116 7635 ft 282 kts 295°
2026-05-04 13:26 1.57088 103.97304 8242 ft 285 kts 293°
2026-05-04 13:26 1.57844 103.95455 8839 ft 288 kts 292°
2026-05-04 13:26 1.58601 103.93581 9452 ft 292 kts 292°
2026-05-04 13:26 1.59357 103.91709 10029 ft 295 kts 292°
2026-05-04 13:27 1.60144 103.89758 10317 ft 309 kts 292°
2026-05-04 13:27 1.60969 103.87717 10554 ft 324 kts 292°
2026-05-04 13:27 1.61828 103.85587 10767 ft 337 kts 292°
2026-05-04 13:27 1.62724 103.83362 10988 ft 349 kts 292°
2026-05-04 13:28 1.63629 103.81105 11262 ft 358 kts 292°
2026-05-04 13:28 1.64558 103.78777 11649 ft 362 kts 292°
2026-05-04 13:28 1.65500 103.76427 12068 ft 366 kts 292°
2026-05-04 13:28 1.66452 103.74057 12487 ft 369 kts 292°
2026-05-04 13:29 1.67415 103.71668 12903 ft 372 kts 292°
2026-05-04 13:29 1.68388 103.69254 13317 ft 375 kts 292°
2026-05-04 13:29 1.69368 103.66826 13719 ft 378 kts 292°
2026-05-04 13:29 1.70358 103.64370 14084 ft 381 kts 292°
2026-05-04 13:30 1.71355 103.61901 14441 ft 383 kts 292°
2026-05-04 13:30 1.72344 103.59452 14809 ft 386 kts 292°
2026-05-04 13:30 1.73353 103.56951 15168 ft 389 kts 292°
2026-05-04 13:30 1.74376 103.54416 15541 ft 392 kts 292°
2026-05-04 13:31 1.75386 103.51913 15897 ft 394 kts 292°
2026-05-04 13:31 1.76417 103.49360 16253 ft 397 kts 292°
2026-05-04 13:31 1.77457 103.46782 16616 ft 400 kts 292°
2026-05-04 13:31 1.78503 103.44190 16972 ft 402 kts 292°
2026-05-04 13:32 1.79552 103.41590 17324 ft 405 kts 292°
2026-05-04 13:32 1.80600 103.38993 17671 ft 408 kts 292°
2026-05-04 13:32 1.81664 103.36355 17870 ft 409 kts 292°
2026-05-04 13:32 1.82728 103.33718 17897 ft 410 kts 292°
2026-05-04 13:33 1.83799 103.31065 17898 ft 411 kts 292°
2026-05-04 13:33 1.84901 103.28413 17897 ft 411 kts 295°
2026-05-04 13:33 1.86105 103.25864 17899 ft 410 kts 297°
2026-05-04 13:33 1.87367 103.23301 17896 ft 410 kts 297°
2026-05-04 13:34 1.88636 103.20739 17894 ft 410 kts 297°
2026-05-04 13:34 1.89902 103.18176 17898 ft 410 kts 297°
2026-05-04 13:34 1.91168 103.15606 17896 ft 410 kts 297°
2026-05-04 13:34 1.92429 103.13038 17897 ft 410 kts 297°
2026-05-04 13:35 1.93674 103.10504 17898 ft 410 kts 297°
2026-05-04 13:35 1.96188 103.05378 17901 ft 410 kts 297°
2026-05-04 13:35 1.97446 103.02813 17901 ft 410 kts 297°
2026-05-04 13:36 1.98699 103.00257 17901 ft 410 kts 297°
2026-05-04 13:36 1.99955 102.97695 17900 ft 410 kts 297°
2026-05-04 13:36 2.01207 102.95141 17904 ft 410 kts 297°
2026-05-04 13:36 2.02445 102.92614 17903 ft 410 kts 297°
2026-05-04 13:37 2.03714 102.90025 17904 ft 410 kts 297°
2026-05-04 13:37 2.04951 102.87501 17903 ft 410 kts 297°
2026-05-04 13:37 2.06214 102.84929 17902 ft 409 kts 298°
2026-05-04 13:37 2.07167 102.83300 17905 ft 409 kts 305°
2026-05-04 13:38 2.09668 102.80418 17637 ft 423 kts 316°
2026-05-04 13:38 2.11830 102.78386 17395 ft 428 kts 319°
2026-05-04 13:38 2.14042 102.76380 17139 ft 427 kts 319°
2026-05-04 13:38 2.16251 102.74392 16884 ft 426 kts 319°
2026-05-04 13:39 2.18451 102.72414 16645 ft 420 kts 319°
2026-05-04 13:39 2.20563 102.70513 16397 ft 405 kts 319°
2026-05-04 13:39 2.22626 102.68655 16163 ft 392 kts 319°
2026-05-04 13:39 2.24627 102.66853 15915 ft 380 kts 319°
2026-05-04 13:40 2.26567 102.65107 15679 ft 370 kts 319°
2026-05-04 13:40 2.28451 102.63409 15433 ft 367 kts 319°
2026-05-04 13:40 2.30202 102.61546 15195 ft 368 kts 308°
2026-05-04 13:40 2.31450 102.59326 14994 ft 362 kts 291°
2026-05-04 13:41 2.32189 102.56961 14814 ft 351 kts 285°
2026-05-04 13:41 2.32784 102.54630 14630 ft 340 kts 284°
2026-05-04 13:41 2.33336 102.52368 14410 ft 325 kts 284°
2026-05-04 13:42 2.34351 102.48155 13697 ft 309 kts 284°
2026-05-04 13:42 2.34855 102.46061 13243 ft 307 kts 284°
2026-05-04 13:42 2.35351 102.43991 12823 ft 305 kts 284°
2026-05-04 13:42 2.35846 102.41929 12399 ft 303 kts 284°
2026-05-04 13:43 2.36328 102.39915 11988 ft 300 kts 284°
2026-05-04 13:43 2.36813 102.37891 11585 ft 299 kts 284°
2026-05-04 13:43 2.37296 102.35877 11177 ft 296 kts 284°
2026-05-04 13:43 2.37773 102.33885 10780 ft 293 kts 284°
2026-05-04 13:44 2.38246 102.31910 10384 ft 291 kts 284°
2026-05-04 13:44 2.38716 102.29945 9995 ft 289 kts 284°
2026-05-04 13:44 2.39184 102.27993 9584 ft 287 kts 284°
2026-05-04 13:44 2.39648 102.26053 9161 ft 288 kts 284°
2026-05-04 13:45 2.40113 102.24109 8761 ft 286 kts 284°
2026-05-04 13:45 2.40567 102.22211 8541 ft 280 kts 284°
2026-05-04 13:45 2.41019 102.20323 8345 ft 278 kts 284°
2026-05-04 13:45 2.41470 102.18441 8147 ft 278 kts 284°
2026-05-04 13:46 2.41921 102.16560 7824 ft 278 kts 284°
2026-05-04 13:46 2.42369 102.14683 7460 ft 276 kts 284°
2026-05-04 13:46 2.42816 102.12821 7106 ft 274 kts 284°
2026-05-04 13:46 2.43253 102.10997 6761 ft 272 kts 284°
2026-05-04 13:47 2.43685 102.09189 6426 ft 259 kts 284°
2026-05-04 13:47 2.44090 102.07493 6119 ft 245 kts 284°
2026-05-04 13:47 2.44488 102.05828 5881 ft 246 kts 284°
2026-05-04 13:47 2.44885 102.04164 5648 ft 244 kts 284°
2026-05-04 13:48 2.45279 102.02518 5396 ft 243 kts 284°
2026-05-04 13:48 2.45671 102.00881 5186 ft 242 kts 284°
2026-05-04 13:48 2.46063 101.99240 5033 ft 241 kts 284°
2026-05-04 13:48 2.46451 101.97611 4865 ft 240 kts 284°
2026-05-04 13:49 2.46839 101.95988 4694 ft 240 kts 284°
2026-05-04 13:49 2.47222 101.94390 4550 ft 238 kts 284°
2026-05-04 13:49 2.47607 101.92781 4514 ft 235 kts 284°
2026-05-04 13:49 2.47982 101.91241 4507 ft 220 kts 285°
2026-05-04 13:50 2.48634 101.89886 4508 ft 216 kts 311°
2026-05-04 13:50 2.49802 101.88942 4525 ft 216 kts 327°
2026-05-04 13:50 2.50519 101.88507 4516 ft 216 kts 328°
2026-05-04 13:50 2.51490 101.87919 4510 ft 216 kts 328°
2026-05-04 13:51 2.52759 101.87107 4512 ft 216 kts 327°
2026-05-04 13:51 2.54019 101.86271 4509 ft 216 kts 326°
2026-05-04 13:51 2.55276 101.85427 4465 ft 217 kts 326°
2026-05-04 13:51 2.56513 101.84572 4259 ft 216 kts 325°
2026-05-04 13:52 2.59003 101.82887 3639 ft 219 kts 326°
2026-05-04 13:52 2.60261 101.82042 3333 ft 212 kts 325°
2026-05-04 13:52 2.61457 101.81235 3039 ft 202 kts 325°
2026-05-04 13:53 2.62581 101.80476 2796 ft 189 kts 324°
2026-05-04 13:53 2.63653 101.79749 2563 ft 188 kts 324°
2026-05-04 13:53 2.64736 101.79019 2329 ft 187 kts 325°
2026-05-04 13:54 2.66843 101.77599 1844 ft 175 kts 325°
2026-05-04 13:54 2.67838 101.76928 1614 ft 169 kts 325°
2026-05-04 13:54 2.69673 101.75694 1211 ft 149 kts 326°
2026-05-04 13:55 2.70228 101.75321 1081 ft 142 kts 326°
2026-05-04 13:55 2.71710 101.74323 789 ft 138 kts 326°
2026-05-04 13:55 2.72500 101.73790 640 ft 139 kts 326°
2026-05-04 13:56 2.73307 101.73244 462 ft 140 kts 326°
2026-05-04 13:56 2.74108 101.72689 316 ft 141 kts 326°
2026-05-04 13:56 2.75697 101.71624 83 ft 114 kts 327°
2026-05-04 13:57 2.76029 101.71407 70 ft 57 kts 327°
2026-05-04 13:57 2.76280 101.71241 66 ft 42 kts 327°
2026-05-04 13:58 2.76544 101.70850 70 ft 8 kts 193°
2026-05-04 13:58 2.76418 101.70920 69 ft 13 kts 147°
2026-05-04 13:58 2.76331 101.70977 66 ft 16 kts 146°
2026-05-04 13:59 2.76240 101.71039 65 ft 17 kts 145°